DW5310 Weather Reports


time (UTC)temp
C
wind
direction
speed
KPH
gust
KPH
rain 1hr
cm
rain 24hr
cm
rain mn
cm
humidity
%
barometer
mb
20260906004005 21 80 3.2 8.0 0.00 0.00 0.00 57 1014.5
20260906003504 21 125 0.0 4.8 0.00 0.00 0.00 57 1014.5
20260906003004 21 310 4.8 4.8 0.00 0.00 0.00 58 1014.5
20260906002004 21 35 0.0 4.8 0.00 0.00 0.00 55 1014.5
20260906001504 21 38 1.6 4.8 0.00 0.00 0.00 54 1014.5
20260906001004 21 58 0.0 9.7 0.00 0.00 0.00 54 1015.5
20260906000504 21 170 0.0 9.7 0.00 0.00 0.00 53 1015.5
20260906000004 21 73 3.2 9.7 0.00 0.00 0.00 57 1015.5
20260905235505 22 176 0.0 0.0 0.00 0.00 0.00 56 1015.5
20260905235004 21 58 0.0 9.7 0.00 0.00 0.00 57 1015.5
20260905234504 21 58 0.0 9.7 0.00 0.00 0.00 56 1015.5
20260905234004 22 50 1.6 9.7 0.00 0.00 0.00 56 1013.5
20260905233504 21 305 3.2 11.3 0.00 0.00 0.00 58 1013.5
20260905233005 21 315 1.6 12.9 0.00 0.00 0.00 58 1013.5
20260905232504 21 260 4.8 12.9 0.00 0.00 0.00 57 1014.5
20260905231505 21 315 0.0 0.0 0.00 0.00 0.00 61 1014.5
20260905231004 21 275 0.0 0.0 0.00 0.00 0.00 60 1014.5
20260905230504 21 224 0.0 8.0 0.00 0.00 0.00 61 1014.5
20260905230004 21 35 0.0 9.7 0.00 0.00 0.00 62 1014.5
20260905225004 20 267 4.8 11.3 0.00 0.00 0.00 61 1014.5
20260905224504 20 170 0.0 9.7 0.00 0.00 0.00 61 1014.5
20260905224004 20 80 0.0 11.3 0.00 0.00 0.00 63 1014.5
20260905223504 20 236 8.0 11.3 0.00 0.00 0.00 66 1014.5
20260905223004 20 342 1.6 8.0 0.00 0.15 0.00 64 1014.5
20260905222504 20 269 1.6 8.0 0.00 0.15 0.00 65 1014.5
20260905221504 20 170 1.6 8.0 0.00 0.15 0.00 63 1014.5
20260905221004 20 215 0.0 9.7 0.00 0.15 0.00 63 1015.5
20260905220505 20 238 1.6 11.3 0.00 0.15 0.00 64 1015.5
20260905220004 20 260 0.0 11.3 0.00 0.15 0.00 64 1015.5
20260905215503 20 156 1.6 11.3 0.00 0.15 0.00 65 1014.5
20260905215004 19 262 1.6 4.8 0.00 0.15 0.00 64 1014.5
20260905214504 20 282 0.0 0.0 0.00 0.15 0.00 65 1014.5
20260905214004 20 282 0.0 0.0 0.00 0.25 0.00 66 1014.5
20260905213503 20 282 0.0 3.2 0.00 0.25 0.00 67 1014.5
20260905213004 20 353 0.0 4.8 0.00 0.61 0.00 67 1014.5
20260905212504 19 40 1.6 4.8 0.00 0.76 0.00 68 1014.5
20260905212003 19 260 0.0 11.3 0.00 0.86 0.00 67 1014.5
20260905211003 20 273 9.7 12.9 0.00 0.86 0.00 67 1015.5
20260905210503 20 265 0.0 12.9 0.00 0.86 0.00 67 1015.5
20260905210004 20 132 8.0 12.9 0.00 0.86 0.00 64 1015.5
20260905205503 20 215 1.6 11.3 0.00 0.86 0.00 68 1014.5
20260905205004 19 193 0.0 0.0 0.00 0.86 0.00 70 1014.5
20260905204504 18 35 0.0 4.8 0.00 0.86 0.00 70 1014.5
20260905203504 19 230 3.2 11.3 0.00 0.86 0.00 69 1015.5
20260905203004 19 53 1.6 8.0 0.00 0.86 0.00 72 1015.5
20260905202504 19 35 1.6 9.7 0.00 0.86 0.00 72 1014.5
20260905202004 19 43 3.2 9.7 0.00 0.86 0.00 72 1014.5
20260905200507 18 213 4.8 12.9 0.00 0.86 0.00 70 1015.5
20260905200007 18 327 0.0 14.5 0.00 0.86 0.00 76 1015.5
20260905195507 19 81 3.2 14.5 0.00 0.86 0.00 77 1015.5
20260905195006 18 77 3.2 14.5 0.00 0.86 0.00 76 1015.5
20260905194006 18 57 3.2 11.3 0.00 0.86 0.00 80 1015.5
20260905193507 18 112 3.2 9.7 0.00 0.86 0.00 81 1015.5
20260905193006 18 125 3.2 11.3 0.00 0.86 0.00 82 1015.5
20260905192506 18 305 3.2 12.9 0.00 0.86 0.00 82 1015.5
20260905192007 18 1 3.2 12.9 0.00 0.86 0.00 82 1015.5
20260905191507 17 165 1.6 11.3 0.00 0.86 0.00 83 1015.5
20260905191007 17 49 1.6 9.7 0.00 0.86 0.00 84 1016.5
20260905190506 17 150 1.6 11.3 0.00 0.86 0.00 85 1016.5
20260905190006 17 73 4.8 11.3 0.00 0.86 0.00 85 1016.5
20260905185506 17 245 3.2 9.7 0.00 0.86 0.00 86 1016.5
20260905184506 16 133 1.6 9.7 0.00 0.86 0.00 88 1016.5
20260905184006 16 305 0.0 8.0 0.00 0.86 0.00 88 1016.5
20260905183506 16 44 1.6 8.0 0.00 0.86 0.00 88 1016.5
20260905183006 16 60 0.0 0.0 0.00 0.86 0.00 89 1016.5
20260905182506 16 54 0.0 0.0 0.00 0.86 0.00 89 1016.5
20260905182007 16 110 0.0 9.7 0.00 0.86 0.00 89 1016.5
20260905181506 16 232 0.0 9.7 0.00 0.86 0.00 90 1016.5
20260905181006 16 104 0.0 9.7 0.00 0.86 0.00 91 1016.5
20260905180507 16 189 1.6 9.7 0.00 0.86 0.00 91 1016.5
20260905180007 17 35 0.0 16.1 0.00 0.86 0.00 92 1016.5
20260905175507 16 86 0.0 16.1 0.00 0.86 0.00 93 1016.5
20260905175006 16 55 1.6 16.1 0.00 0.86 0.00 93 1016.5
20260905174506 16 126 4.8 11.3 0.00 0.86 0.00 93 1016.5
20260905174006 16 80 3.2 9.7 0.00 0.86 0.00 94 1016.5
20260905173506 15 89 1.6 12.9 0.00 0.86 0.00 94 1016.5
20260905173006 15 64 3.2 12.9 0.00 0.86 0.00 94 1016.5
20260905172506 15 82 0.0 8.0 0.00 0.86 0.00 95 1016.5
20260905172007 15 86 0.0 8.0 0.00 0.86 0.00 95 1016.5
20260905171506 15 84 0.0 8.0 0.00 0.86 0.00 95 1016.5
20260905171006 15 40 0.0 8.0 0.00 0.86 0.00 96 1016.5
20260905170507 15 59 0.0 12.9 0.00 0.86 0.00 96 1016.5
20260905165006 15 58 4.8 11.3 0.00 0.86 0.00 97 1016.5
20260905164506 15 60 0.0 8.0 0.00 0.86 0.00 98 1016.5
20260905164006 14 68 0.0 8.0 0.00 0.86 0.00 98 1016.5
20260905163506 14 35 0.0 8.0 0.00 0.86 0.00 98 1016.5
20260905163008 14 68 1.6 8.0 0.00 0.86 0.00 98 1016.5
20260905162506 14 78 0.0 3.2 0.00 0.86 0.00 98 1016.5
20260905162006 13 52 0.0 0.0 0.00 0.86 0.00 98 1016.5
20260905161507 13 35 0.0 0.0 0.00 0.86 0.00 98 1016.5
20260905161006 13 39 0.0 0.0 0.00 0.86 0.00 98 1016.5
20260905160506 13 80 0.0 0.0 0.00 0.86 0.00 98 1016.5
20260905160007 13 99 0.0 0.0 0.00 0.86 0.00 98 1016.5
20260905155506 12 80 0.0 0.0 0.00 0.86 0.00 98 1016.5
20260905155006 12 91 0.0 0.0 0.00 0.86 0.00 98 1016.5
20260905154006 12 80 0.0 0.0 0.00 0.86 0.00 98 1016.5
20260905153506 12 86 0.0 0.0 0.00 0.86 0.00 98 1016.5
20260905153006 12 95 0.0 0.0 0.00 0.86 0.00 98 1016.5
20260905152506 12 80 0.0 0.0 0.00 0.86 0.00 98 1016.5
20260905152006 12 113 0.0 0.0 0.00 0.86 0.00 98 1016.5
20260905151505 12 282 0.0 0.0 0.00 0.86 0.00 98 1016.5
20260905151006 11 282 0.0 0.0 0.00 0.86 0.00 98 1016.5
20260905150506 11 282 0.0 0.0 0.00 0.86 0.00 98 1016.5
20260905150006 11 282 0.0 0.0 0.00 0.86 0.00 98 1016.5
20260905145508 11 282 0.0 0.0 0.00 0.86 0.00 98 1016.5
20260905145006 11 282 0.0 0.0 0.00 0.86 0.00 98 1016.5
20260905144506 11 282 0.0 0.0 0.00 0.86 0.00 98 1016.5
20260905144006 11 282 0.0 0.0 0.00 0.86 0.00 98 1016.5
20260905143506 11 282 0.0 0.0 0.00 0.86 0.00 98 1016.5
20260905142505 11 282 0.0 0.0 0.00 0.86 0.00 98 1016.5
20260905142006 11 282 0.0 0.0 0.00 0.86 0.00 98 1016.5
20260905141006 11 282 0.0 0.0 0.00 0.86 0.00 98 1016.5
20260905140506 11 282 0.0 0.0 0.00 0.86 0.00 98 1016.5
20260905140006 11 282 0.0 0.0 0.00 0.86 0.00 98 1016.5
20260905135506 11 282 0.0 0.0 0.00 0.86 0.00 98 1015.5
20260905135006 11 282 0.0 0.0 0.00 0.86 0.00 98 1015.5
20260905134006 11 282 0.0 0.0 0.00 0.86 0.00 98 1015.5
20260905133506 11 282 0.0 0.0 0.00 0.86 0.00 98 1015.5
20260905133007 11 282 0.0 0.0 0.00 0.86 0.00 98 1015.5
20260905132006 11 282 0.0 0.0 0.00 0.86 0.00 98 1015.5
20260905131505 11 282 0.0 0.0 0.00 0.86 0.00 98 1015.5
20260905131006 11 282 0.0 0.0 0.00 0.86 0.00 98 1015.5
20260905130006 11 282 0.0 0.0 0.00 0.86 0.00 98 1015.5
20260905125505 11 282 0.0 0.0 0.00 0.86 0.00 98 1015.5
20260905124505 11 282 0.0 0.0 0.00 0.86 0.00 98 1015.5
20260905123506 11 282 0.0 0.0 0.00 0.86 0.00 98 1015.5
20260905123006 11 282 0.0 0.0 0.00 0.86 0.00 98 1015.5
20260905122507 11 282 0.0 0.0 0.00 0.86 0.00 98 1014.5
20260905122006 11 282 0.0 0.0 0.00 0.86 0.00 98 1014.5
20260905121506 11 282 0.0 0.0 0.00 0.86 0.00 98 1014.5
20260905121006 11 282 0.0 0.0 0.00 0.86 0.00 98 1015.5
20260905120505 11 282 0.0 0.0 0.00 0.86 0.00 98 1015.5
20260905120005 11 282 0.0 0.0 0.00 0.86 0.00 98 1015.5
20260905115006 11 282 0.0 0.0 0.00 0.86 0.00 98 1015.5
20260905114506 11 282 0.0 0.0 0.00 0.86 0.00 98 1015.5
20260905114006 11 282 0.0 0.0 0.00 0.86 0.00 98 1015.5
20260905113505 11 282 0.0 0.0 0.00 0.86 0.00 98 1015.5
20260905113006 11 282 0.0 0.0 0.00 0.86 0.00 98 1015.5
20260905112506 11 282 0.0 0.0 0.00 0.86 0.00 98 1015.5
20260905112005 11 282 0.0 0.0 0.00 0.86 0.00 98 1015.5
20260905110506 11 282 0.0 0.0 0.00 0.86 0.00 98 1014.5
20260905110006 11 282 0.0 0.0 0.00 0.86 0.00 98 1014.5
20260905105506 11 282 0.0 0.0 0.00 0.86 0.00 98 1014.5
20260905105006 11 282 0.0 0.0 0.00 0.86 0.00 98 1014.5
20260905104506 11 282 0.0 0.0 0.00 0.99 0.00 98 1014.5
20260905104006 11 282 0.0 0.0 0.00 0.99 0.00 98 1015.5
20260905103505 11 282 0.0 0.0 0.00 0.99 0.00 98 1015.5
20260905103005 11 282 0.0 0.0 0.00 0.99 0.00 98 1015.5
20260905102006 11 282 0.0 0.0 0.00 0.99 0.00 98 1015.5
20260905101005 11 282 0.0 0.0 0.00 0.99 0.00 98 1015.5
20260905100005 11 282 0.0 0.0 0.00 0.99 0.00 98 1015.5
20260905095505 12 282 0.0 0.0 0.00 0.99 0.00 98 1015.5
20260905094505 12 282 0.0 0.0 0.00 0.99 0.00 98 1015.5
20260905094006 12 282 0.0 0.0 0.00 0.99 0.00 98 1014.5
20260905093505 12 282 0.0 0.0 0.00 0.99 0.00 98 1014.5
20260905093005 12 282 0.0 0.0 0.00 0.99 0.00 98 1014.5
20260905092505 12 282 0.0 0.0 0.00 0.99 0.00 98 1014.5
20260905092005 12 282 0.0 0.0 0.00 0.99 0.00 98 1014.5
20260905090505 12 282 0.0 0.0 0.00 0.99 0.00 98 1015.5
20260905090005 12 305 0.0 0.0 0.00 0.99 0.00 98 1015.5
20260905085505 12 305 0.0 0.0 0.00 0.99 0.00 98 1014.5
20260905084505 12 305 0.0 0.0 0.00 0.99 0.00 98 1014.5
20260905083505 12 305 0.0 0.0 0.00 0.99 0.00 98 1014.5
20260905083007 12 305 0.0 0.0 0.00 0.99 0.00 98 1014.5
20260905082005 12 305 0.0 0.0 0.00 0.99 0.00 98 1014.5
20260905081506 12 305 0.0 0.0 0.00 0.99 0.00 98 1014.5
20260905080505 12 305 0.0 0.0 0.00 0.99 0.00 98 1014.5
20260905080005 12 305 0.0 0.0 0.00 0.99 0.00 98 1014.5
20260905075505 12 305 0.0 0.0 0.00 0.99 0.00 98 1014.5
20260905075005 12 305 0.0 0.0 0.00 0.99 0.00 98 1014.5
20260905074505 12 305 0.0 0.0 0.00 0.99 0.00 98 1014.5
20260905074005 12 305 0.0 0.0 0.00 0.99 0.00 98 1014.5
20260905073505 12 305 0.0 0.0 0.00 0.99 0.00 98 1014.5
20260905073005 12 58 0.0 0.0 0.00 0.99 0.00 98 1014.5
20260905072005 12 58 0.0 0.0 0.00 0.99 0.00 98 1014.5
20260905071506 12 58 0.0 0.0 0.00 0.99 0.00 98 1014.5
20260905071005 12 58 0.0 0.0 0.00 0.99 0.00 98 1014.5
20260905070505 12 58 0.0 0.0 0.00 0.99 0.00 98 1014.5
20260905070005 12 58 0.0 0.0 0.00 0.99 0.00 98 1014.5
20260905065004 12 58 0.0 0.0 0.00 0.99 0.99 98 1014.5
20260905064505 12 58 0.0 0.0 0.00 0.99 0.99 98 1014.5
20260905064005 12 58 0.0 0.0 0.00 0.99 0.99 98 1014.5
20260905063505 12 46 0.0 0.0 0.00 0.99 0.99 98 1014.5
20260905063005 12 282 0.0 0.0 0.00 0.99 0.99 98 1014.5
20260905062505 12 305 0.0 0.0 0.00 0.99 0.99 98 1014.5
20260905062005 12 260 0.0 0.0 0.00 0.99 0.99 98 1014.5
20260905061504 12 260 0.0 0.0 0.00 0.99 0.99 98 1014.5
20260905061005 12 260 0.0 0.0 0.00 0.99 0.99 98 1014.5
20260905060505 12 260 0.0 0.0 0.00 0.99 0.99 98 1014.5
20260905060005 12 260 0.0 0.0 0.00 0.99 0.99 98 1014.5
20260905055505 12 260 0.0 0.0 0.00 0.99 0.99 98 1014.5
20260905055005 12 260 0.0 0.0 0.00 0.99 0.99 98 1014.5
20260905054505 12 260 0.0 0.0 0.00 0.99 0.99 98 1014.5
20260905054004 12 260 0.0 0.0 0.00 0.99 0.99 98 1014.5
20260905053505 12 260 0.0 0.0 0.00 0.99 0.99 98 1014.5
20260905053005 12 260 0.0 0.0 0.00 0.99 0.99 98 1014.5
20260905052505 12 260 0.0 0.0 0.00 0.99 0.99 98 1014.5
20260905052005 12 260 0.0 0.0 0.00 0.99 0.99 98 1014.5
20260905051505 12 260 0.0 0.0 0.00 0.99 0.99 98 1014.5
20260905051004 12 260 0.0 0.0 0.00 0.99 0.99 97 1014.5
20260905050505 12 260 0.0 0.0 0.00 0.99 0.99 97 1014.5
20260905050004 12 260 0.0 0.0 0.00 0.99 0.99 97 1014.5
20260905045505 12 260 0.0 0.0 0.00 0.99 0.99 97 1014.5
20260905044505 12 282 0.0 0.0 0.00 0.99 0.99 97 1014.5
20260905043504 12 282 0.0 0.0 0.00 0.99 0.99 97 1014.5
20260905042505 12 282 0.0 0.0 0.00 0.99 0.99 97 1014.5
20260905042004 12 282 0.0 0.0 0.00 0.99 0.99 97 1014.5
20260905041505 12 282 0.0 0.0 0.00 0.99 0.99 96 1014.5
20260905041005 12 282 0.0 0.0 0.00 0.99 0.99 96 1014.5
20260905040505 12 282 0.0 0.0 0.00 0.99 0.99 96 1014.5
20260905035504 12 305 0.0 0.0 0.00 0.99 0.99 96 1014.5
20260905035005 12 305 0.0 0.0 0.00 0.99 0.99 96 1014.5
20260905034504 12 283 0.0 0.0 0.00 0.99 0.99 96 1014.5
20260905033505 12 305 0.0 0.0 0.00 0.99 0.99 96 1014.5
20260905033005 12 260 0.0 0.0 0.00 0.99 0.99 96 1014.5
20260905032504 12 305 0.0 0.0 0.00 0.99 0.99 96 1014.5
20260905031504 12 305 0.0 0.0 0.00 0.99 0.99 95 1014.5
20260905031004 12 305 0.0 0.0 0.00 0.99 0.99 95 1013.5
20260905030504 12 305 0.0 0.0 0.00 0.99 0.99 95 1013.5
20260905030005 12 305 0.0 0.0 0.00 0.99 0.99 95 1013.5
20260905025005 12 305 0.0 0.0 0.00 0.99 0.99 95 1013.5
20260905023505 13 305 0.0 0.0 0.00 0.99 0.99 94 1013.5
20260905022504 13 305 0.0 0.0 0.00 0.99 0.99 94 1013.5
20260905022006 13 305 0.0 0.0 0.00 0.99 0.99 94 1013.5
20260905021506 13 305 0.0 0.0 0.00 0.99 0.99 94 1013.5
20260905021004 13 305 0.0 0.0 0.00 0.99 0.99 94 1013.5
20260905020504 13 192 0.0 0.0 0.00 0.99 0.99 94 1013.5
20260905020005 13 205 0.0 0.0 0.00 0.99 0.99 94 1013.5
20260905015504 13 58 0.0 0.0 0.00 0.99 0.99 94 1013.5
20260905015004 13 58 0.0 0.0 0.00 0.99 0.99 94 1013.5
20260905014505 13 58 0.0 0.0 0.00 0.99 0.99 94 1013.5
20260905014005 13 70 0.0 0.0 0.00 0.99 0.99 94 1013.5
20260905013504 13 58 0.0 0.0 0.00 0.99 0.99 94 1013.5
20260905013005 13 58 0.0 0.0 0.00 0.99 0.99 94 1013.5
20260905012504 13 170 0.0 0.0 0.00 0.99 0.99 93 1012.5
20260905011504 14 170 0.0 0.0 0.00 0.99 0.99 93 1012.5
20260905011004 14 170 0.0 0.0 0.00 0.99 0.99 93 1012.5
20260905010504 14 170 0.0 0.0 0.00 0.99 0.99 93 1012.5
20260905010005 14 170 0.0 0.0 0.00 0.99 0.99 93 1012.5
20260905005504 14 80 0.0 0.0 0.00 0.99 0.99 93 1012.5
20260905005004 14 101 0.0 0.0 0.00 0.99 0.99 93 1012.5
20260905004504 14 156 0.0 0.0 0.00 0.99 0.99 94 1012.5